Погода в Саприное

Россия / Воронежская область     50°22′32″N   39°53′01″E
темп.,
°C
ветер,
м/с
пор.,
м/с
влажн.,
%
обл.,
%
осадки,
мм/ч
давл.,
гПа
погр.,
м
6 мая, чт
чт600:00+9ю34695 0.0 101650
03:00+8ю3669100 0.0 1016106
06:00+8ююв3868100 0.0 1016197
09:00+13ю5855100 0.0 1016576
12:00+16ю7945100 0.0 10141671
15:00+18ю794393 0.0 10132059
18:00+16ю4857100 0.0 1012338
21:00+13ююв3867100 0.0 1013179
7 мая, пт
пт700:00+14ю41261100 0.0 1012362
03:00+12зсз3873100 0.0 1013326
06:00+10ссз2493100 0.5 1015289
09:00+12с4476100 0.7 1016700
12:00+15ссз336438 0.1 10161123
15:00+18ссз33456 0.1 10161881
18:00+17св225099 0.0 1016283
21:00+12в2258100 0.0 101612
8 мая, сб
сб800:00+11юв3579100 0.0 101680
03:00+11юв398698 0.1 1014206
06:00+12ююв41184100 0.1 1013343
09:00+15ююз61164100 0.1 1013765
12:00+15ю61269100 0.1 1012618
15:00+18ююз81358100 0.1 10101239
18:00+12юз31090100 1.6 1010325
21:00+12з3692100 1.8 1010146
9 мая, вс
вс900:00+9ссз61089100 0.0 1011578
03:00+6ссз71290100 0.3 1012664
06:00+5с61291100 3.9 1013807
09:00+7ссз6981100 6.1 10131004
12:00+8ссз6977100 0.9 10151234
15:00+9ссз6973100 1.5 10161219
18:00+9сз6974100 0.4 10171106
21:00+7сз61088100 0.6 1019976
10 мая, пн
пн1000:00+6зсз61286100 0.1 1020460
03:00+6сз61581100 0.1 1020571
06:00+7ссз81672100 0.0 10201179
09:00+7ссз101977100 0.5 10191691
12:00+5ссз101890100 4.0 10181225
15:00+5ссз91591100 5.3 1017941
18:00+6с71394100 0.5 1016647
21:00+8ссв61297100 1.6 1016652